User: anonymous   Login
Location: Albany
(35.0000°S, 118.0000°E)
Time: 17:12:56
(UTC-04:00)
Language:

ADEOS Rocket - Orbit

View from above orbital plane
View from above orbital plane
View from above satellite
View from above satellite

Ground track
Ground track

The orbit data is extracted from the following two-line orbital elements,

1 24279U 96046C   18108.78961503 -.00000017 +00000-0 +26567-4 0  9995
2 24279 098.7692 020.2927 0299190 230.0776 181.2182 13.47104619065116
Epoch (UTC): 18 April 2018 18:57:02
Eccentricity: 0.0299190
inclination: 98.7692°
perigee height: 860 km
apogee height: 1306 km
right ascension of ascending node: 20.2927°
argument of perigee: 230.0776°
revolutions per day: 13.47104619
mean anomaly at epoch: 181.2182°
orbit number at epoch: 6511

The dashed part of the orbit path shows where the satellite is in the earth's shadow,  

DLR